Погода в Киргиз-Мияках

Россия / Республика Башкортостан     53°37′50″N   54°48′12″E
темп.,
°C
ветер,
м/с
пор.,
м/с
влажн.,
%
обл.,
%
осадки,
мм/ч
давл.,
гПа
погр.,
м
20 июня, вс
вс2023:00+15зюз411890 0.0 1021221
02:00+16з513841 0.0 1019290
05:00+15з412901 0.0 1019266
08:00+20зсз48810 0.0 1018281
11:00+24сз69710 0.8 1018743
14:00+27ссз710565 0.7 10181660
17:00+25ссз69683 1.1 10191446
20:00+22ссз48800 0.5 1019421
21 июня, пн
пн2123:00+16св33830 0.5 102136
02:00+13с22740 0.0 102211
05:00+12ссв11695 0.0 102310
08:00+16св126214 0.0 1024179
11:00+20св22505 0.0 1025641
14:00+23ссв11484 0.0 1024909
17:00+24зюз135159 0.0 10231127
20:00+22ююз347138 0.0 102276
22 июня, вт
вт2223:00+19зюз228176 0.1 102215
02:00+17зюз22905 0.6 102221
05:00+17зюз22920 0.8 102230
08:00+21з36843 0.7 1022267
11:00+25сз467113 3.1 1022593
14:00+28зсз5555100 0.1 10211552
17:00+28зсз455842 0.1 10211355
20:00+24зсз497181 0.3 1020219
23 июня, ср
ср2323:00+22зсз257650 0.3 102197
02:00+19з22873 0.0 102012
05:00+19зюз22915 0.0 102022
08:00+23зсз387842 0.0 1020331
11:00+26сз57652 2.2 1019844
14:00+29сз57510 0.1 10191843
17:00+29сз465698 0.1 10182133
20:00+26сз36748 0.1 1017160
24 июня, чт
чт2423:00+21зсз22840 0.4 101818
02:00+19зсз11870 0.0 101712
05:00+18з11893 0.3 101711
08:00+22з118089 0.0 1017188
11:00+25с2369100 1.0 1017490
14:00+27ссз246087 0.2 10161146
17:00+28сз235417 0.8 10151208
20:00+20ююз3381100 5.1 101553